Corinne, UT

8:14 PM MST on February 13, 2016 (GMT -0700)
MesoWest | | Change Station
CLOSE
Current Station
Personal Weather Station
Location: Corinne, UT
Elevation: 4211 ft
Nearby Weather Stations

Elev 4211 ft 41.30 °N, 112.27 °W | Updated 29 minutes ago

Fog
Fog
28 °F
Feels Like 22 °F
N
5
Wind Variable Wind from NNW
Gusts 8.0 mph

Today
High -- | Low -- °F
--% Chance of Precip.
Yesterday
High -- | Low -- °F
Precip. -- in
Pressure 30.33 in
Visibility 1.5 miles
Clouds Overcast 300 ft
Windchill 22 °F
Dew Point 26 °F
Humidity 93%
Rainfall in
Snow Depth Not available.
7:27 AM 6:00 PM
Waxing Crescent, 37% visible
METAR KBMC 140255Z AUTO 33003KT 1 1/2SM OVC003 M02/M03 A3033 RMK AO1 T10251034
Pressure 30.33 in
Visibility 1.5 miles
Clouds Overcast 300 ft
Windchill 22 °F
Dew Point 26 °F
Humidity 93%
Rainfall in
Snow Depth Not available.
7:27 AM 6:00 PM
Waxing Crescent, 37% visible
METAR KBMC 140255Z AUTO 33003KT 1 1/2SM OVC003 M02/M03 A3033 RMK AO1 T10251034

10-Day Weather Forecast

Almanac

Astronomy

Feb. 13, 2016 Rise Set
Actual Time
Civil Twilight
Nautical Twilight
Astronomical Twilight
Moon
Length of Visible Light
Length of Day
Tomorrow will be .
, % of the Moon is Illuminated

Today's Extremes

State Highs State Lows

Community

WunderPhotos

Upload Photos

1,892,733 photos uploaded!

WunderBlog® & News

Nearby

Air Quality

  Air Quality AQ Index Pollutant
Not available.

Snow Depth

Station Depth Elevation

Earthquake Activity

City Distance Mag. Time & Date
Minimum magnitude displayed is 2.5.

Coastal Water Temperatures

Place Temperature

Stations

Nearby Weather Stations

Station Location Temp. Windchill Dew Point Humidity Wind Precip. Elev Updated Type
                   

Watches & Warnings

There are currently no watches in effect.